Hlavní strana
METAR-TAF:

METAR-TAF

Letiště :

Tri-County Airport

Ahoskie, Severní Karolína, Spojené státy americké

zeměpisná šířka: 36-17-51N, zeměpisná délka: 077-10-15W, výška: 21 m

Aktuální stav počasí

Zpráva byla vytvořena před 25 minutami, v 01:15 UTC
Bezvětří
Teplota 22°C
Vlhkost vzduchu 100%
Tlak 1016 hPa
Viditelnost: 16.1 km
Zataženo ve výšce 700 ft

METAR: KASJ 300115Z AUTO 00000KT 10SM OVC007 22/22 A3000 RMK AO2 T02200220

Čas: 21:40 (01:40 UTC)


TAF: chybějící

Stav a předpovědi počasí z více než 4 000 letišť (zprávy METAR a TAF).

Červené a žluté tečky na mapě představují dostupné meteorologické stanice.

Když kurzor umístíte na tečku, zobrazí se název stanice.

Pak kliknutím zobrazíte stav a předpověď počasí.

Chcete-li změnit mapu, kliknutím na zelené tlačítko se znaménkem +mapu přiblížíte, kliknutím na zelené tlačítko se znaménkem – mapu oddálíte a kliknutím na zelené šipky přejdete na sousední mapy.


METAR-TAF: